Location: Unspecified
(0.0000°N, 0.0000°E)
Time: 03:58:31
(UTC+00:00)

Vanguard 2 Rocket - Visible Passes

Search period start: 29 May 2017 00:00
Search period end: 08 June 2017 00:00
Orbit: 553 x 3328 km, 32.9° (Epoch: 27 May)

Date Brightness Start Highest point End Pass type
(mag) Time Alt. Az. Time Alt. Az. Time Alt. Az.
29 May 7.7 04:17:35 27° NW 04:18:43 30° NNW 04:24:46 10° NNE visible
29 May 9.9 18:02:34 10° W 18:14:15 22° SW 18:22:46 10° SSE visible
30 May 8.3 03:21:43 27° NNE 03:21:43 27° NNE 03:24:48 10° NE visible
30 May 9.2 05:31:57 10° NW 05:34:24 12° NNW 05:37:14 10° N visible
31 May 8.6 04:31:39 11° NW 04:34:06 15° NNW 04:37:46 10° NNE visible
31 May 10.1 18:21:44 10° WSW 18:29:37 15° SSW 18:35:56 10° S visible
01 Jun 8.5 03:35:44 19° N 03:35:44 19° N 03:38:31 10° NNE visible
02 Jun 10.1 18:43:04 10° SW 18:45:36 11° SSW 18:47:57 10° SSW visible
